Regional Weather Roundup
Issued by NWS

Home | Current Version | Previous Version | Text Only | Print | Product List | Glossary Off
Versions: 1 2 3 4 5 6 7 8 9 10 11 12 13 14 15 16 17 18 19 20 21 22 23 24 25 26 27 28 29 30 31 32 33 34 35 36 37 38 39 40 41 42 43 44 45 46 47 48 49 50

000
ASUS43 KMPX 062110
RWRMN
WEATHER ROUNDUP FOR MINNESOTA
NATIONAL WEATHER SERVICE TWIN CITIES/CHANHASSEN MN
300 PM CST TUE DEC 06 2016


NOTE: "FAIR" INDICATES FEW OR NO CLOUDS BELOW 12,000 FEET WITH NO
SIGNIFICANT WEATHER AND/OR OBSTRUCTIONS TO VISIBILITY. N/A MEANS
CURRENT SKY AND/OR WEATHER CONDITIONS ARE NOT AVAILABLE.

MNZ060>063-068>070-062200-
   Twin Cities Metro

CITY           SKY/WX    TMP DP  RH WIND       PRES   REMARKS
TWIN CITIES    FLURRIES  23  12  62 W22G29    29.71R WCI   8
ST PAUL        CLOUDY    23  14  68 SW17G25   29.72S WCI   9
CRYSTAL        CLOUDY    23  11  60 W20G28    29.68R WCI   8
BLAINE           N/A     25  16  68 SW16G30   29.67R WCI  12
LAKEVILLE      CLOUDY    21  16  79 W16G26    29.72S WCI   7
EDEN PRAIRIE   CLOUDY    24  13  62 SW23G32   29.70R WCI   9
SOUTH ST PAUL  CLOUDY    24  14  65 W20G28    29.71S WCI   9
LAKE ELMO      CLOUDY    25  16  68 SW16G30   29.70S WCI  12
$$
MNZ001>005-007-008-013>017-022>024-027-028-062200-
   Northwest Minnesota

CITY           SKY/WX    TMP DP  RH WIND       PRES   REMARKS
BEMIDJI        LGT SNOW  24  21  91 SW9       29.27S WCI  14
HALLOCK        LGT SNOW  25  23  93 NW7       29.43R WCI  17
ROSEAU         FLURRIES  23  18  80 N5        29.39R WCI  17
WARROAD        CLOUDY    23  18  80 CALM      29.39R
THIEF RVR FALL FLURRIES  23  20  88 NW13      29.39R WCI  11
CROOKSTON      LGT SNOW  23  21  93 NW14      29.43R WCI  11
FOSSTON        LGT SNOW  21  18  86 NW17      29.36R WCI   7
DETROIT LAKES  SNOW      21  19  93 W26G39    29.44R VSB 1/2 WCI   4
MOORHEAD       MIX PCPN  19  16  86 W35G45    29.52R VSB 1/2 WCI  -1
PARK RAPIDS    HVY SNOW  22  16  78 W24G33    29.36S VSB 1/4 WCI   5
$$
MNZ006-009>011-018-025>026-062200-
   North Central Minnesota

CITY           SKY/WX    TMP DP  RH WIND       PRES   REMARKS
BAUDETTE       LGT SNOW  22  17  81 E6        29.37R WCI  14
FLAG ISLAND    LGT SNOW  23  19  86 E5        29.38R WCI  17
INTL FALLS     LGT SNOW  21  16  81 SE9       29.39S VSB 3/4 WCI  11
WASKISH        LGT SNOW  23  19  86 E7        29.32R VSB 3/4 WCI  15
BIG FORK       LGT SNOW  21  18  86 SE10G18   29.35S VSB 1   WCI  10
LONGVILLE      LGT SNOW  21  18  86 S12G26    29.38S WCI   9
GRAND RAPIDS   LGT SNOW  21  18  86 S17       29.39F FOG     WCI   7
CRANE LAKE     FLURRIES  21  16  79 S9        29.44S WCI  11
ORR            LGT SNOW  21  14  73 S10       29.37F WCI  10
COOK           LGT SNOW  19  16  86 SE12G18   29.41F WCI   7
$$
MNZ012-019>021-037-062200-
   Northeast Minnesota

CITY           SKY/WX    TMP DP  RH WIND       PRES   REMARKS
DULUTH         LGT SNOW  21  15  78 SW14G22   29.48F WCI   8
ELY            FLURRIES  21  16  79 S10G18    29.44S WCI  10
HIBBING        LGT SNOW  19  16  88 S12G20    29.42F VSB 3/4 WCI   7
EVELETH        LGT SNOW  20  14  77 S12G21    29.45S WCI   9
DULUTH HARBOR  FLURRIES  27  18  69 SW16G23   29.55F WCI  14
TWO HARBORS    FLURRIES  25  18  74 SW13G20   29.50S WCI  13
SILVER BAY     FLURRIES  23  18  80 SW10G17   29.49S WCI  12
GRAND MARAIS     N/A     33  24  69 SW24G32   29.52S WCI  20
G MARAIS ARPRT CLOUDY    21  18  86 S10G20    29.45S WCI  10
$$
MNZ029>031-032-039>041-046>048-054>057-064-062200-
   West Central Minnesota

CITY           SKY/WX    TMP DP  RH WIND       PRES   REMARKS
FERGUS FALLS   SNOW      18  16  93 W33G41    29.62R VSB 1/2 WCI  -3
WHEATON        LGT SNOW  19  16  86 W23G35    29.69R WCI   2
MORRIS         LGT SNOW  19  16  86 W31G39    29.65R WCI   0
ALEXANDRIA     SNOW      18  15  88 W31G38    29.59R VSB 1/4 WCI  -2
ELBOW LAKE     SNOW      17  16  93 NW33G47   29.61R VSB 1/4 WCI  -3
WADENA         SNOW      19  16  86 W25G35    29.46R VSB 1/2 WCI   2
GLENWOOD       LGT SNOW  18  16  93 W24G41    29.61R VSB 3/4 WCI   0
BENSON         FLURRIES  19  12  73 NW31G41   29.68R WCI   0
ORTONVILLE     CLOUDY    18  10  73 W20G41    29.72R WCI   1
MADISON        CLOUDY    21  12  68 W32G44    29.76R WCI   2
WILLMAR        FLURRIES  21  16  79 W30G38    29.70R WCI   3
$$
MNZ033>034-036-042>043-049>051-058-059-062200-
   Central Minnesota

CITY           SKY/WX    TMP DP  RH WIND       PRES   REMARKS
ST CLOUD       FLURRIES  22  15  75 SW26G38   29.62R WCI   5
PAYNESVILLE    LGT SNOW  21  15  77 W25G32    29.65S WCI   4
AITKIN         LGT SNOW  25  16  68 SW12G22   29.45S WCI  14
PINE RIVER     LGT SNOW  21  18  86 SW15G23   29.46S WCI   8
BRAINERD       LGT SNOW  21  15  78 SW24G31   29.49R WCI   4
STAPLES        LGT SNOW  19  16  86 W23G32    29.48R WCI   2
LONG PRAIRIE   LGT SNOW  19  14  79 SW24      29.56R WCI   2
LITTLE FALLS   LGT SNOW  21  14  73 W17G29    29.56S WCI   7
LITCHFIELD     LGT SNOW  21  16  79 W20G29    29.68R WCI   6
BUFFALO        FLURRIES  23  15  71 SW16G25   29.68R WCI   9
MAPLE LAKE     LGT SNOW  24  18  77 W15G25    29.67R WCI  11
HUTCHINSON     CLOUDY    22  15  73 W23G35    29.72R WCI   6
$$
MNZ037-044-045-052-053-062200-
   East Central Minnesota

CITY           SKY/WX    TMP DP  RH WIND       PRES   REMARKS
PRINCETON      LGT SNOW  25  18  74 SW13G24   29.61S WCI  13
MORA           LGT SNOW  21  18  86 SW10G24   29.59S VSB 1   WCI  10
CAMBRIDGE      FLURRIES  25  14  63 SW16G22   29.61S WCI  12
RUSH CITY      CLOUDY    23  14  68 SW15G22   29.61F WCI  10
MOOSE LAKE     LGT SNOW  23  16  74 SW16      29.50F WCI  10
HINCKLEY       FLURRIES  25  18  74 SW13G23   29.57F WCI  13
CLOQUET        LGT SNOW  21  14  73 S17G24    29.49S WCI   7
MCGREGOR       CLOUDY    25  19  80 SW16G26   29.47S WCI  12
$$
MNZ071>073-080-081-089-090-097-098-062200-
   Southwest Minnesota

CITY           SKY/WX    TMP DP  RH WIND       PRES   REMARKS
MONTEVIDEO     CLOUDY    23  10  58 NW22G44   29.75R WCI   8
GRANITE FALLS  MOSUNNY   23  14  68 W35G43    29.78R WCI   4
CANBY          MOSUNNY   20  10  65 NW26G43   29.79R WCI   3
MARSHALL       FLURRIES  18  10  71 W31G43    29.77R WCI  -2
REDWOOD FALLS  CLOUDY    22   9  57 W32G39    29.76R WCI   3
OLIVIA         SUNNY     23  14  68 W28G39    29.73R WCI   6
PIPESTONE      FLURRIES  18  10  73 NW28G38   29.81S WCI  -1
WINDOM         CLOUDY    21  12  68 W32G41    29.78R WCI   2
WORTHINGTON    FLURRIES  21  12  68 W32G40    29.80R WCI   2
JACKSON        CLOUDY    23  12  63 W31G41    29.80R WCI   5
TRACY          MOSUNNY   21  12  68 W20G30    29.78S WCI   6
SLAYTON        PTSUNNY   19  11  72 W36G45    29.78R WCI  -1
$$
MNZ065>067-074>077-082>085-091>093-062200-
   South Central Minnesota

CITY           SKY/WX    TMP DP  RH WIND       PRES   REMARKS
MANKATO        FLURRIES  23  14  68 W18G35    29.77R WCI   9
NEW ULM        CLOUDY    23  12  63 W26G33    29.77R WCI   6
ST JAMES       CLOUDY    23  12  63 W29G36    29.80R WCI   6
FAIRMONT       CLOUDY    23  13  65 W30G39    29.81R WCI   5
GLENCOE        FLURRIES  23  17  79 W13G25    29.72R WCI  11
FARIBAULT      CLOUDY    23  14  68 SW22G35   29.76R WCI   8
OWATONNA       FLURRIES  23  14  68 W28       29.76R WCI   6
WASECA         FLURRIES  23  16  74 W25G32    29.78R WCI   7
ALBERT LEA     CLOUDY    27  18  69 W18G31    29.78R WCI  13
$$
MNZ078>079-086>088-094>096-062200-
   Southeast Minnesota

CITY           SKY/WX    TMP DP  RH WIND       PRES   REMARKS
ROCHESTER      CLOUDY    22  16  78 W26G32    29.75S HAZE    WCI   5
RED WING       CLOUDY    25  14  63 W17G25    29.74R WCI  11
STANTON        CLOUDY    25  15  66 W17G31    29.74R WCI  11
DODGE CENTER   CLOUDY    21  16  79 W24G32    29.74S WCI   4
WINONA         CLOUDY    28  19  69 W8G18     29.79R WCI  20
AUSTIN         FLURRIES  23  16  74 W22G32    29.78S WCI   8
PRESTON        CLOUDY    22  16  76 W16G23    29.78R WCI   8
$$
ABBREVIATIONS USED IN REMARKS
   TC - TEMPERATURES IN CELSIUS
  WCI - WIND CHILL INDEX
   HX - HEAT INDEX
  VSB - VISIBILITY
$$




USA.gov is the U.S. government's official web portal to all federal, state and local government web resources and services.